Satellite-Ground Cal/Val Site Overpasses Predictions

Prediction of Satellite NPP Overpassing Cal/Val Site: Antarctic Dome C

Ground Cal/Val Site Location: Latitude: -75.10, Longitude: 123.35; Satellite-Ground Site NADIR distance within 100 km.

Table of predicted overpasses for the next 14.0 days since TLE Epoch: 6/18/2012
Interval Starting Time Ending Time Minimum Distance Time Minimum Distance (km)
1 06/19/2012 14:46:50 06/19/2012 14:47:19 06/19/2012 14:47:04 18.03
2 06/21/2012 07:29:37 06/21/2012 07:30:06 06/21/2012 07:29:52 3.10
3 06/24/2012 14:53:00 06/24/2012 14:53:29 06/24/2012 14:53:14 18.05
4 06/25/2012 14:34:17 06/25/2012 14:34:29 06/25/2012 14:34:23 88.92
5 06/26/2012 07:35:47 06/26/2012 07:36:15 06/26/2012 07:36:01 35.38
6 06/27/2012 07:17:01 06/27/2012 07:17:20 06/27/2012 07:17:10 74.87
7 06/29/2012 14:59:11 06/29/2012 14:59:36 06/29/2012 14:59:23 54.52
8 06/30/2012 14:40:19 06/30/2012 14:40:44 06/30/2012 14:40:32 54.67
9 07/01/2012 07:41:59 07/01/2012 07:42:20 07/01/2012 07:42:09 70.15
